sat.trackr.live / text

‹ back to catalog

STARLINK-5198

NORAD 54099 · 2022-136BA

PAYLOAD ACTIVE UNKNOWN

§ Identity

Operator
Country
US
Launch date
2022-10-20
Launch site
AFETR
Launch vehicle
Mass (kg)
RCS (m²)

Purposes: comms

External: N2YO · Heavens-Above · Gunter

§ Orbital elements

Epoch: 2026-09-20T22:00:03.000096Z

Period
95.25 min
Inclination
53.1603°
Eccentricity
0.0001830
Mean motion
15.11827067 rev/d
Perigee alt
529.4 km
Apogee alt
531.9 km
Semi-major
6,908.8 km
B*
5.9264e-4
RAAN
176.5750°
Arg perigee
27.4582°
Mean anomaly
325.2666°
Rev number
579

§ Raw data

STARLINK-51981 54099U 22136BA  26263.91670139  .00009960  00000+0  59264-3 0  99982 54099  53.1603 176.5750 0001830  27.4582 325.2666 15.11827067  5797

JSON: /api/v1/satellites/54099 · /tle

For live sub-satellite position, see the globe view (requires WebGL).

§ Visibility from observer

Set your observer location to see the next 7 days of passes ≥ 10°. The values pass through the URL so the page stays shareable.

No JS? Fill the form by hand. The geolocation button needs JavaScript.